Dewpoint
55 55 55 56 56 56 54 54 55 55 55 55 55 56 56 56 56 56 56 56 56 56 56 56 56 57 57 57 58 58 58 54 51 47 49 49 61 68 71 69 67 68 70 58 60 52 53 59 59 56 54 56 57 57 60 62 64 67 63 57 57 60 61 61 60 60 60 60 62 64 64 64 62 63 64 67 64 64 62 60 57 53 55 57 59 60 60 60
55 55 55 55 56 55 55 55 55 55 55 55 55 55 56 56 56 56 56 56 56 56 56 56 56 57 57 57 58 58 56 53 49 46 44 55 66 70 66 68 68 71 66 54 57 53 53 55 54 51 49 52 57 56 60 65 66 66 64 59 57 58 58 62 62 59 60 60 63 64 65 64 62 64 63 63 62 63 62 58 56 55 57 58 59 60 59 59
55 55 55 56 56 55 55 55 55 55 55 55 55 55 56 56 56 56 56 56 56 56 56 56 56 57 57 57 58 58 56 53 52 49 48 65 69 66 68 66 66 69 49 50 55 55 52 52 47 45 46 50 54 54 60 63 61 64 61 58 60 58 63 60 61 62 63 63 64 63 64 63 63 63 63 62 61 61 59 56 55 56 57 57 58 58 59 59
55 55 55 55 55 55 55 55 55 55 55 55 55 55 55 56 56 56 56 56 56 56 56 56 56 56 57 58 58 57 53 52 47 45 57 68 67 67 67 67 67 64 46 50 54 55 51 48 43 42 42 47 53 53 55 59 55 60 59 57 56 56 56 60 60 61 62 64 62 62 63 62 62 62 63 62 61 60 59 57 55 56 57 58 58 58 58 59
55 55 55 55 55 55 55 55 55 55 55 55 55 55 55 55 56 56 56 56 56 56 56 56 56 57 57 58 58 55 52 40 43 48 62 69 69 67 68 67 66 39 44 48 54 53 48 44 41 39 39 44 49 52 52 54 60 56 56 54 56 57 52 57 61 61 61 62 63 63 61 62 63 64 62 61 61 62 59 57 57 57 58 58 57 58 59 58
55 55 54 55 55 55 55 54 55 55 55 55 55 55 55 55 55 55 56 56 56 56 56 56 57 57 58 58 56 51 47 27 44 47 59 67 66 65 68 69 66 39 38 45 52 50 43 40 39 38 37 42 47 48 50 50 58 59 54 53 54 55 55 58 60 61 61 62 61 60 61 63 62 61 64 63 64 61 59 57 57 58 58 58 57 58 58 58
55 54 54 54 54 54 54 54 55 55 55 55 55 54 55 55 55 55 55 55 55 56 56 56 57 57 58 58 53 48 44 37 37 51 67 65 66 64 66 65 64 44 36 43 51 48 39 38 35 36 36 41 46 48 49 50 53 53 52 54 53 54 59 53 58 60 60 61 61 62 61 63 62 61 61 62 63 62 59 58 57 57 58 57 57 58 57 57
54 54 55 54 54 54 54 54 54 55 55 55 54 54 55 55 55 55 55 55 55 56 56 57 57 58 58 50 47 48 47 38 42 54 63 66 62 59 60 44 39 37 41 46 52 46 37 34 31 33 35 39 44 46 47 49 52 51 51 53 53 53 52 46 56 55 60 59 60 60 62 63 62 61 59 61 57 62 59 58 57 56 56 56 56 57 57 56
54 54 54 54 54 54 54 54 54 55 55 55 55 54 55 55 55 55 55 55 56 56 57 57 57 58 58 52 35 32 30 40 42 47 58 49 42 46 37 32 32 38 48 52 54 46 36 30 29 32 34 39 43 42 46 47 53 50 51 52 53 52 50 46 44 61 58 62 62 62 63 62 65 62 62 60 58 61 59 58 57 56 55 55 54 55 55 55
55 54 54 54 54 54 54 54 54 55 54 54 55 55 54 54 54 55 55 56 56 57 57 57 58 57 55 46 39 35 42 40 39 42 35 37 35 36 35 32 33 42 52 53 52 45 35 30 29 31 33 34 32 32 39 46 48 50 49 51 53 51 48 46 43 56 56 64 66 64 63 63 63 61 60 60 58 57 57 57 57 55 54 53 53 54 54 54
54 54 54 55 54 54 54 54 55 54 54 54 54 54 54 54 54 55 55 56 57 58 58 58 57 57 47 43 39 33 42 42 42 38 35 31 35 36 37 32 33 42 48 47 44 42 36 31 29 28 27 27 31 34 37 43 45 45 47 49 49 49 46 46 45 56 60 60 66 65 64 64 65 61 58 60 56 56 56 56 56 55 54 53 53 53 54 53
54 54 55 54 54 54 54 55 55 55 55 54 54 54 54 54 54 55 56 57 58 58 58 58 57 55 47 36 34 35 41 42 42 41 34 30 30 34 36 33 32 40 44 39 34 35 33 30 29 28 26 31 30 35 36 39 41 40 44 44 45 46 45 46 43 55 57 61 63 64 62 60 60 62 61 57 57 56 56 56 55 54 53 53 53 53 55 53
54 54 55 55 54 55 55 54 54 54 55 55 55 55 54 54 54 55 56 57 58 59 59 58 58 54 47 38 33 35 38 42 41 42 40 33 31 29 36 38 34 40 40 34 29 30 30 30 29 28 27 28 30 29 37 37 36 40 43 43 44 44 43 45 43 55 55 60 61 60 55 58 61 62 61 60 56 56 55 55 54 54 54 52 53 52 54 53
55 55 55 55 55 54 54 55 55 55 55 55 54 54 54 54 54 55 57 58 60 59 58 58 56 51 47 40 33 31 38 39 42 41 40 44 40 38 41 41 38 38 38 34 32 28 27 29 29 28 30 29 28 31 32 35 36 36 38 40 41 47 43 44 45 48 54 57 59 56 54 58 60 62 61 60 57 56 55 54 54 54 53 53 53 53 54 53
55 55 55 55 55 55 55 55 55 55 55 54 54 54 54 54 55 57 58 59 60 59 58 59 55 52 39 35 38 40 67 42 38 37 39 41 37 35 31 37 36 37 36 33 32 31 28 28 29 29 28 30 31 29 28 33 35 35 34 34 39 41 50 43 44 49 54 56 57 55 53 56 58 60 62 61 63 59 54 53 54 53 53 53 53 53 53 53
56 55 55 55 55 55 55 55 55 55 54 54 54 54 54 54 56 57 59 59 59 58 57 50 47 43 40 37 33 52 31 34 37 35 38 36 37 31 30 34 35 36 34 33 33 31 31 31 29 27 27 28 27 27 30 32 33 33 31 32 38 39 54 40 43 47 52 52 53 56 52 54 59 58 62 63 61 59 57 54 54 54 54 53 53 53 53 53
55 55 55 55 55 54 55 54 55 55 54 54 54 54 54 55 56 58 59 60 57 55 52 43 43 38 27 37 39 32 31 28 34 33 35 35 34 31 31 30 30 31 31 31 31 29 30 28 27 25 25 25 26 27 29 31 31 31 31 30 37 38 41 40 45 48 51 51 52 55 53 54 55 58 61 62 61 63 62 56 55 55 54 55 54 53 54 53
55 55 55 55 55 55 54 54 54 54 54 53 53 53 52 55 57 57 57 56 50 46 48 45 42 40 34 29 29 33 29 24 33 33 34 35 33 33 31 27 27 27 28 28 29 27 27 24 22 17 18 22 26 25 26 28 29 30 31 29 32 37 40 46 41 44 50 47 51 52 53 55 57 58 60 61 64 65 64 63 65 62 54 55 53 53 54 53
55 55 55 55 55 55 54 54 54 54 53 53 54 54 55 56 53 50 52 44 43 42 40 36 38 30 24 20 24 31 24 26 34 34 31 31 34 36 33 29 27 26 22 24 24 25 24 21 19 18 16 17 19 23 21 24 28 28 30 28 31 35 38 40 52 44 46 47 48 47 49 55 56 58 60 62 64 62 62 65 64 65 62 55 54 52 53 53
55 56 55 55 55 55 54 54 54 53 52 52 52 53 50 47 43 42 43 46 40 36 33 32 29 23 22 22 23 27 25 35 32 33 31 31 36 36 32 29 26 25 20 19 21 21 23 18 17 16 14 15 14 19 23 22 22 24 28 29 30 35 37 39 37 50 47 46 45 47 53 52 54 57 60 63 64 64 64 65 64 64 64 61 54 52 54 54
55 55 55 55 55 54 54 54 53 52 52 50 49 47 46 33 29 33 38 41 42 39 34 31 25 17 17 25 29 30 31 30 31 30 31 32 34 32 29 28 26 22 20 17 18 20 22 19 15 16 14 16 16 17 23 25 21 20 24 29 30 32 33 37 37 39 50 46 46 47 50 50 52 57 61 63 62 64 63 65 64 63 65 64 59 54 54 54
55 55 55 54 54 54 54 53 53 52 51 50 48 41 42 33 32 31 32 26 33 34 27 26 26 19 19 26 30 30 28 26 25 28 32 28 31 27 29 27 23 21 19 17 16 18 19 18 16 16 18 17 18 17 19 22 22 21 25 30 30 30 32 34 34 32 32 34 43 44 45 50 53 57 59 61 65 69 66 64 63 63 65 64 63 64 56 54
55 55 55 55 54 54 53 53 52 51 50 49 42 38 38 34 33 35 31 25 22 26 27 22 21 20 20 27 27 26 22 19 17 28 32 26 31 25 30 26 22 20 18 16 13 16 17 17 17 16 19 18 16 17 16 20 25 27 28 29 32 33 31 30 30 29 29 27 43 45 43 49 53 56 57 60 61 66 66 65 67 68 64 64 65 65 62 55
55 55 55 54 54 53 53 52 51 51 50 44 40 41 34 34 33 33 30 26 25 23 23 20 19 18 17 24 28 24 20 16 14 27 32 25 27 25 28 23 21 19 16 15 13 15 15 16 16 16 18 17 16 23 26 23 23 26 32 31 33 34 32 31 28 29 29 28 41 41 42 47 50 52 56 59 59 61 61 64 66 65 66 66 67 66 66 57
55 55 55 54 54 53 51 50 45 42 41 42 35 33 31 36 37 35 31 28 23 22 22 19 16 16 14 21 25 22 16 16 13 21 29 23 27 24 25 24 21 20 19 16 13 14 15 16 15 13 15 16 17 24 28 26 27 30 33 33 33 32 32 31 29 29 28 28 40 43 44 43 49 51 51 57 59 61 60 61 64 67 65 65 64 64 65 63
55 55 55 54 54 53 51 44 39 36 39 34 33 32 34 34 38 34 30 28 24 19 19 15 16 13 14 16 20 17 15 13 14 17 28 21 28 23 21 20 21 21 20 20 16 14 14 16 14 12 13 16 17 22 29 30 29 30 31 33 33 31 28 29 27 28 28 27 28 30 37 38 48 50 49 53 58 60 63 61 61 63 64 63 64 66 62 62
54 54 54 53 53 51 49 36 41 34 34 31 31 33 32 33 48 35 29 24 21 18 17 15 11 16 15 17 16 14 10 10 12 18 26 22 20 24 17 13 17 19 20 20 21 16 17 16 14 12 12 14 19 24 31 31 28 26 23 28 29 28 27 25 26 27 27 27 27 27 26 41 45 46 46 48 52 55 60 61 61 63 63 62 64 65 64 63
54 54 53 53 52 51 49 50 44 38 29 32 32 32 34 42 42 34 30 25 14 17 14 14 11 18 14 16 14 13 11 10 9 20 20 15 19 21 16 10 8 15 21 19 18 20 17 16 14 17 16 15 24 28 30 29 24 20 25 19 23 22 22 25 27 27 26 26 26 25 27 33 42 46 51 49 51 52 53 57 60 61 61 62 65 66 66 62
54 53 53 52 52 51 52 48 44 37 31 30 31 29 33 44 32 30 28 21 13 12 16 12 15 15 13 14 13 13 9 11 9 13 13 12 16 14 8 10 12 10 18 22 20 20 16 15 15 19 23 24 28 29 26 26 22 20 29 29 20 19 21 27 29 26 27 28 27 28 24 26 45 45 48 47 50 53 53 55 58 58 61 61 63 64 65 61
54 53 53 52 50 52 50 50 46 41 37 34 35 38 33 30 30 25 18 18 15 10 12 10 9 12 12 11 11 12 8 9 8 12 11 11 14 15 14 14 14 13 13 20 23 20 11 19 32 23 25 27 29 27 24 27 25 26 28 28 24 22 19 26 29 32 31 29 31 27 21 21 40 46 52 45 48 50 52 53 62 61 59 61 63 63 64 62
52 52 51 51 48 42 41 38 42 41 39 41 38 35 36 34 29 23 12 10 10 10 10 10 7 13 9 9 9 11 9 7 12 10 11 13 11 11 11 12 16 15 13 18 21 24 23 13 27 30 32 29 27 24 25 27 26 24 27 27 28 28 26 28 29 30 30 28 29 27 23 23 38 45 48 50 52 51 54 54 53 55 61 61 60 61 62 63
51 50 51 52 50 50 41 36 38 37 42 40 38 37 35 28 25 19 18 15 10 7 5 4 7 10 9 9 9 10 9 7 13 13 12 11 10 6 9 12 14 15 14 16 17 21 17 15 22 26 32 27 25 24 25 26 28 28 23 27 26 23 25 24 28 25 24 25 25 22 23 24 45 46 49 50 51 56 58 53 55 56 57 60 61 58 61 63
50 50 50 50 51 48 41 43 42 44 42 38 37 37 36 34 21 15 12 9 8 5 4 6 10 9 8 7 6 6 6 5 11 12 12 11 10 8 8 8 11 13 19 17 16 17 20 20 25 25 24 29 26 19 23 26 28 27 22 24 26 23 22 22 23 26 24 21 20 22 22 43 46 48 49 48 49 50 52 53 53 58 58 58 59 60 59 61
50 50 51 51 49 44 41 48 48 42 37 39 39 33 31 28 20 22 12 8 7 7 5 3 5 7 7 4 4 3 -3 -2 8 9 10 11 9 9 6 7 10 12 14 18 16 15 18 15 21 23 24 27 26 25 25 27 27 26 20 21 26 24 18 21 19 18 17 18 16 15 20 42 42 45 47 47 49 50 50 51 54 57 58 59 60 64 60 66
50 51 52 51 50 48 45 46 48 43 41 37 34 35 27 22 16 12 9 8 7 6 4 1 2 5 5 4 1 2 -1 4 5 8 6 8 6 8 7 6 11 15 14 16 15 17 15 15 19 22 20 26 25 25 23 24 23 25 22 21 22 21 21 15 20 18 16 12 14 17 29 43 44 49 48 48 48 49 49 50 54 56 58 59 62 63 63 64
51 47 50 47 43 44 50 49 43 41 40 36 32 27 29 27 14 12 11 11 6 5 2 3 3 5 5 3 5 5 5 5 3 5 4 6 6 8 7 7 10 15 16 15 22 12 14 12 15 19 15 17 23 25 26 19 17 22 22 22 23 21 18 22 22 12 14 16 20 39 39 42 45 46 46 46 47 47 48 49 51 55 56 58 60 61 64 66
40 40 40 45 44 27 33 35 38 41 39 34 26 21 17 16 12 13 18 10 9 10 1 2 2 -0 1 3 5 3 7 5 7 1 7 7 7 10 10 13 15 17 18 18 18 18 16 10 13 13 11 16 21 24 26 19 17 16 20 21 23 22 18 23 17 22 12 12 30 36 40 40 41 42 47 47 46 46 48 48 50 53 56 57 58 61 64 65
46 39 40 31 27 29 32 40 38 40 35 29 25 25 17 15 13 12 11 11 6 6 3 3 4 2 4 7 7 7 7 5 8 5 6 7 11 15 12 12 13 15 17 19 17 17 15 12 12 12 11 14 17 16 15 15 16 15 13 18 15 18 19 22 22 20 21 11 30 36 39 40 41 44 44 44 44 47 49 50 51 51 53 55 56 57 62 64
46 37 37 31 28 24 28 39 37 38 34 31 30 23 14 13 15 11 11 11 10 12 13 16 8 4 8 6 6 7 8 4 8 5 11 6 10 13 12 12 14 13 15 16 15 17 16 12 13 13 12 11 13 14 15 12 14 14 15 15 16 17 17 16 20 25 25 18 29 37 44 39 46 42 46 43 47 48 49 50 51 52 54 54 56 56 57 63
37 36 34 31 26 26 37 32 29 33 29 25 21 19 18 16 15 12 11 13 12 14 15 14 16 12 9 11 6 5 5 4 3 5 5 9 9 14 12 14 14 16 13 15 15 17 17 22 15 12 12 13 14 13 9 10 10 12 14 16 15 15 15 15 17 21 22 26 25 33 37 40 42 43 42 45 46 49 49 49 52 54 54 55 55 56 57 59
43 39 31 32 25 30 29 26 26 30 29 24 17 17 17 18 18 15 13 10 12 14 11 13 10 10 13 12 8 8 4 2 3 5 6 12 12 13 15 15 15 13 15 14 15 16 19 17 18 13 11 11 10 11 7 7 6 6 10 14 13 10 15 17 19 18 19 22 32 34 39 43 42 43 44 44 47 48 49 50 51 53 54 56 56 56 57 58
39 33 28 31 25 28 29 26 24 15 22 22 18 18 20 26 18 15 17 11 12 14 8 11 15 14 13 16 11 8 7 5 7 10 10 13 16 17 17 17 15 15 15 17 14 14 20 20 19 13 11 9 8 8 12 15 15 15 9 12 11 11 17 19 18 18 18 21 31 39 41 43 45 44 44 44 45 47 47 47 51 52 53 54 55 56 57 58
40 33 28 27 28 28 28 27 25 26 20 19 18 19 18 19 19 14 17 14 17 13 12 10 16 15 15 16 12 10 10 9 12 11 15 17 18 17 17 18 15 16 14 21 24 16 27 17 18 15 15 12 13 13 15 16 15 14 13 10 11 10 9 10 15 24 23 45 40 39 41 42 44 46 45 44 45 45 48 48 50 50 52 54 54 55 56 57
34 23 23 23 29 30 27 27 26 22 19 19 19 17 18 19 20 19 18 17 18 17 17 16 13 14 17 15 13 14 12 17 16 16 17 16 17 17 18 18 17 17 20 21 26 20 13 24 23 19 18 17 12 15 13 13 14 14 12 15 16 13 14 17 20 27 25 22 38 33 40 42 44 46 45 44 43 42 44 45 48 50 51 52 53 54 55 56
40 32 26 22 26 24 22 22 24 21 22 21 23 20 19 20 19 20 20 18 19 18 18 16 15 12 15 14 16 17 15 15 18 14 17 14 16 15 17 18 17 17 21 24 49 20 18 21 24 19 18 16 15 14 16 14 13 13 13 12 15 15 20 22 20 32 23 31 34 38 42 45 45 46 44 43 43 45 44 45 46 47 50 51 53 53 54 54
36 40 29 21 22 20 21 19 19 21 23 26 24 17 19 18 19 18 20 19 18 19 19 18 16 15 14 12 14 15 15 15 18 20 19 17 16 16 15 15 15 16 36 46 37 18 19 22 28 31 28 23 29 28 18 16 13 13 14 13 12 13 15 20 23 26 25 35 42 44 44 43 44 43 43 42 43 43 44 45 45 45 47 49 52 53 53 54
37 26 25 31 27 23 20 22 21 17 21 20 27 14 22 14 18 18 18 20 20 20 19 18 17 17 20 16 18 15 14 14 17 19 17 16 17 16 17 16 15 23 45 35 21 14 26 22 22 29 28 23 17 17 14 17 12 12 12 11 14 15 17 19 20 22 37 33 37 49 47 43 42 43 42 44 44 45 44 45 45 46 46 46 48 52 55 52
29 24 29 34 29 27 28 20 23 22 20 22 21 16 18 20 18 24 19 17 17 20 19 25 20 19 21 23 25 31 19 23 20 17 17 21 19 16 13 14 15 20 26 16 14 15 23 23 18 16 18 19 15 12 12 11 12 11 9 10 13 14 15 18 22 21 25 30 42 47 46 44 43 43 43 44 45 45 43 44 45 45 45 47 49 48 49 50
35 26 20 20 26 22 22 15 20 21 20 23 23 25 22 22 19 13 19 25 19 21 22 28 23 21 21 22 28 31 38 30 28 28 30 23 19 17 16 15 15 13 12 17 20 30 27 19 20 13 15 12 14 13 13 12 11 12 12 12 10 13 14 17 18 17 20 40 44 45 49 44 43 44 45 44 45 44 44 45 46 46 46 48 47 48 47 48
37 35 37 34 31 26 25 25 23 25 23 31 32 19 24 24 23 23 21 25 28 23 21 24 24 24 23 22 28 37 35 33 33 38 28 28 25 24 24 25 24 20 16 20 21 30 21 25 26 19 21 17 13 13 12 12 11 12 11 9 9 8 9 14 15 22 28 40 43 44 45 44 45 46 46 47 47 45 45 45 46 47 46 46 47 47 48 48
43 39 44 40 35 22 29 26 29 32 30 33 30 26 28 20 22 24 19 21 26 27 28 26 25 24 23 30 32 30 30 32 32 29 28 27 28 24 27 29 24 26 24 22 21 24 22 20 23 22 21 19 15 11 11 11 9 10 11 10 9 7 9 16 23 23 27 43 44 44 44 44 45 46 46 47 47 46 45 44 45 45 44 47 48 48 50 50
47 48 49 42 37 29 27 23 25 30 27 26 27 26 27 20 24 29 30 23 19 23 26 25 24 25 29 29 34 32 30 30 28 29 27 25 26 24 25 26 25 26 27 27 29 24 26 23 21 20 20 18 15 11 10 9 9 8 9 6 8 10 9 8 18 23 27 44 43 42 47 46 45 46 45 45 45 46 44 44 45 45 47 45 45 45 48 50